Location: *
(6.0000°S, 32.3997°W)
Time: 15:55:54
(UTC+00:00)

Cosmos 2278 Rocket - Pass Details

Date: 01 April 2020
Orbit: 839 x 847 km, 71.0° (Epoch: 27 May)

Event Time Altitude Azimuth Distance (km) Brightness Sun altitude
Rises 20:32:37 0° 16° (NNE) 3,390 5.2 -5.3°
Reaches altitude 10° 20:35:50 10° 34° (NE) 2,460 4.3 -6.1°
Maximum altitude 20:39:34 18° 76° (ENE) 1,954 3.5 -7.0°
Drops below altitude 10° 20:43:19 10° 118° (ESE) 2,470 4.1 -8.0°
Enters shadow 20:45:36 - 132° (SE) 3,114 4.7 -8.5°
